[[{"header":{"parameterUnit":"m.s-1","parameterCategory":2,"la1":30.2991,"la2":30.254,"lo1":-89.0895,"lo2":-89.0444,"dy":0.0017,"dx":0.0017,"nx":28,"ny":28,"refTime":"2025-03-06T09:00:00:Z","depth":"0","parameterNumber":2,"parameterNumberName":"U-component_of_CURRENTS"},"data":[0,0,0,0,0,0,0,0,0,0,0,0,0,0,0,0,0,0,0,0,0,0,0,0,0,0,0,0,0,0,0,0,0,0,0,0,0,0,0,0,0,0,0,0,0,0,0,0,0,0,0,0,0,0,0,0,0,0,0.3499,0.35,0,0.3587,0.3588,0.3589,0.36,0.36,0.3599,0.3599,0.3535,0.3534,0.3533,0,0,0,0,0,0,0,0,0,0,0,0,0,0.3391,0.3392,0.3499,0.35,0.3502,0.3587,0.3588,0.3589,0.36,0.36,0.3599,0.3599,0.3536,0.3534,0.3533,0,0,0,0,0,0,0,0,0,0,0,0,0,0.3449,0.3392,0.3498,0.3521,0.3525,0.3587,0.3588,0.3589,0.36,0.36,0.3599,0.3599,0.3536,0.3534,0.3532,0.3532,0,0,0.3526,0.3525,0,0,0,0,0,0,0,0,0.3446,0.3452,0.3517,0.352,0.3524,0.3587,0.3527,0.3564,0.36,0.3566,0.3599,0.3598,0.3542,0.354,0.3552,0.3529,0.3526,0.3526,0.3525,0.3524,0.3523,0,0,0,0,0,0,0,0.3442,0.3449,0.3529,0.3518,0.3523,0.3546,0.3552,0.3535,0.3549,0.3569,0.3572,0.359,0.3542,0.3555,0.3551,0.3525,0.3526,0.3524,0.3523,0.3522,0.3509,0.351,0,0,0,0,0,0,0.3439,0.3445,0.3526,0.3532,0.3488,0.3548,0.3555,0.3563,0.3553,0.3554,0.359,0.359,0.3558,0.3553,0.3548,0.3563,0.3524,0.3522,0.3521,0.3509,0.351,0.3511,0,0,0,0,0,0,0.3436,0.3445,0.3522,0.3495,0.3507,0.3551,0.3559,0.3565,0.3587,0.3572,0.3568,0.3607,0.3558,0.3551,0.3554,0.3559,0.3521,0.3519,0.3508,0.3509,0.351,0.358,0,0,0,0,0,0,0.3432,0.3443,0.345,0.3495,0.3509,0.3565,0.3561,0.3567,0.3601,0.3601,0.3585,0.3578,0.3557,0.3557,0.3552,0.3556,0.3518,0.3506,0.3508,0.351,0.3577,0.3584,0.359,0,0,0,0,0,0.3428,0.3441,0.3449,0.346,0.3515,0.3567,0.3576,0.3602,0.3602,0.3617,0.3614,0.3579,0.3563,0.3557,0.3551,0.3554,0.3506,0.3508,0.351,0.3574,0.3583,0.359,0,0,0,0,0,0,0.3396,0.3446,0.3455,0.3481,0.3524,0.3571,0.3593,0.361,0.3623,0.3618,0.3598,0.3592,0.3598,0.3568,0.3563,0.3555,0.3525,0.3526,0.3576,0.3584,0.359,0.358,0.3516,0,0,0,0,0,0.3394,0.3417,0.3467,0.349,0.3511,0.3553,0.3578,0.3596,0.3617,0.3624,0.3617,0.3603,0.36,0.3588,0.358,0.3574,0.3583,0.3569,0.3576,0.3581,0.3569,0.3618,0.3628,0.3517,0.3517,0.3517,0,0,0.3388,0.3421,0.3433,0.3486,0.3518,0.3551,0.3565,0.3606,0.3622,0.3611,0.3624,0.363,0.3608,0.3613,0.361,0.3586,0.3623,0.3584,0.3589,0.3573,0.3621,0.3632,0.3642,0.3518,0.3518,0.3518,0,0,0.3401,0.3417,0.3446,0.3483,0.354,0.3557,0.3572,0.3621,0.3629,0.3648,0.3652,0.3669,0.3648,0.365,0.3643,0.3676,0.3666,0.3667,0.3678,0.3727,0.3737,0.3745,0.3797,0.381,0.3658,0.3658,0.3658,0,0.3392,0.3437,0.3464,0.3506,0.3545,0.356,0.3604,0.3607,0.3649,0.3661,0.3651,0.3681,0.3663,0.3688,0.3695,0.3689,0.3719,0.3653,0.3737,0.3745,0.3753,0.3804,0.3817,0.3662,0.3661,0.3661,0.3661,0,0.3436,0.3471,0.3493,0.3543,0.358,0.362,0.3641,0.365,0.3656,0.3671,0.3706,0.3711,0.3729,0.3728,0.3711,0.3759,0.3766,0.3754,0.3721,0.3769,0.3819,0.3832,0.3667,0.3666,0.3665,0.3664,0,0,0.3424,0.3507,0.3515,0.3553,0.361,0.3644,0.3654,0.3686,0.3711,0.3714,0.3767,0.3757,0.3777,0.377,0.3778,0.3801,0.3886,0.3793,0.3794,0.3851,0.4009,0.4023,0.4037,0.3898,0.39,0.3902,0.4033,0,0.3455,0.353,0.3571,0.3635,0.3678,0.37,0.3723,0.3743,0.3757,0.3797,0.3791,0.3841,0.3787,0.3831,0.3839,0.3888,0.3917,0.3851,0.3946,0.3949,0.3961,0.4051,0.4,0.4113,0.4045,0.4047,0.4049,0,0.3496,0.3542,0.3612,0.3698,0.3722,0.3749,0.3806,0.3839,0.3868,0.3891,0.3917,0.393,0.3967,0.3925,0.3993,0.396,0.3977,0.3998,0.4004,0.3993,0.3985,0.4047,0.4137,0.4109,0.4067,0.4066,0.4064,0,0.3485,0.3577,0.3631,0.3661,0.3744,0.3771,0.3814,0.3859,0.3904,0.397,0.4014,0.4049,0.4098,0.4112,0.4121,0.4077,0.421,0.4161,0.4187,0.4189,0.4148,0.4142,0.422,0.4209,0.4209,0.4208,0.4208,0,0.3509,0.355,0.3623,0.3652,0.3708,0.3789,0.3857,0.3894,0.3988,0.4029,0.4072,0.412,0.4147,0.4203,0.4188,0.4242,0.4267,0.421,0.4231,0.4173,0.4169,0.414,0.4086,0.4213,0.4212,0.4211,0.421,0,0.3476,0.3532,0.3588,0.3674,0.37,0.3741,0.3862,0.3904,0.4016,0.4078,0.4109,0.4209,0.429,0.4323,0.439,0.4351,0.4309,0.4401,0.4335,0.4345,0.4309,0.4259,0.4129,0.3989,0.4451,0.4452,0.4453,0,0.3458,0.3484,0.3569,0.3582,0.3612,0.3689,0.3727,0.3876,0.3922,0.4098,0.4109,0.426,0.4305,0.4461,0.448,0.4529,0.4363,0.4479,0.4364,0.4325,0.4285,0.4071,0.3944,0.4351,0.4351,0.4352,0.4352,0,0.3399,0.3426,0.3456,0.3485,0.352,0.3569,0.3641,0.3691,0.3843,0.3934,0.4032,0.4124,0.4334,0.4399,0.453,0.4527,0.4321,0.4481,0.4459,0.4233,0.3984,0.3854,0.4252,0.4352,0.4352,0.4352,0.4352,0.4352,0.3319,0.331,0.3334,0.3345,0.338,0.3377,0.3378,0.3484,0.3565,0.3665,0.3857,0.3988,0.429,0.4489,0.4462,0.4489,0.4328,0.4396,0.4351,0.4146,0.396,0.4365,0.4471,0.4472,0.4472,0.4473,0.4473,0,0.3173,0.3169,0.3184,0.3173,0.3139,0.3214,0.3249,0.3239,0.3268,0.3486,0.3605,0.3935,0.4147,0.4345,0.454,0.442,0.4151,0.4306,0.4009,0.3892,0.4319,0.427,0.4314,0.4314,0.4314,0.4314,0.4314,0.4314,0.3088,0.3022,0.3023,0.2904,0.2905,0.2816,0.28,0.284,0.297,0.3143,0.335,0.3589,0.4131,0.4568,0.4603,0.4446,0.4058,0.3911,0.3794,0.4176,0.418,0.4184,0.4129,0.4143,0.4142,0.3245,0.3238,0.3234]},{"header":{"parameterUnit":"m.s-1","parameterCategory":2,"la1":30.2991,"la2":30.254,"lo1":-89.0895,"lo2":-89.0444,"dy":0.0017,"dx":0.0017,"nx":28,"ny":28,"refTime":"2025-03-06T09:00:00:Z","depth":"0","parameterNumber":3,"parameterNumberName":"V-component_of_CURRENTS"},"data":[0,0,0,0,0,0,0,0,0,0,0,0,0,0,0,0,0,0,0,0,0,0,0,0,0,0,0,0,0,0,0,0,0,0,0,0,0,0,0,0,0,0,0,0,0,0,0,0,0,0,0,0,0,0,0,0,0,0,-0.0132,-0.0133,0,-0.021,-0.0211,-0.0212,-0.0268,-0.0268,-0.0269,-0.0269,-0.0355,-0.0356,-0.0358,0,0,0,0,0,0,0,0,0,0,0,0,0,-0.0144,-0.0143,-0.0132,-0.0133,-0.0134,-0.021,-0.0211,-0.0212,-0.0268,-0.0268,-0.0269,-0.027,-0.0354,-0.0356,-0.0358,0,0,0,0,0,0,0,0,0,0,0,0,0,-0.0171,-0.0142,-0.0132,-0.0172,-0.0176,-0.021,-0.0211,-0.0212,-0.0268,-0.0268,-0.0269,-0.027,-0.0353,-0.0356,-0.0358,-0.0358,0,0,-0.0367,-0.0368,0,0,0,0,0,0,0,0,-0.0169,-0.017,-0.0165,-0.0169,-0.0174,-0.0231,-0.0247,-0.0262,-0.0267,-0.0232,-0.0269,-0.027,-0.0314,-0.032,-0.0331,-0.0362,-0.0366,-0.0367,-0.0368,-0.0369,-0.037,0,0,0,0,0,0,0,-0.0167,-0.0168,-0.0162,-0.0166,-0.0172,-0.0225,-0.0228,-0.025,-0.0267,-0.0235,-0.024,-0.025,-0.0317,-0.0329,-0.0334,-0.0367,-0.0367,-0.0369,-0.0371,-0.0372,-0.0417,-0.0416,0,0,0,0,0,0,-0.0152,-0.0165,-0.016,-0.0165,-0.0175,-0.0223,-0.0228,-0.0211,-0.0267,-0.0276,-0.0249,-0.0252,-0.0324,-0.0331,-0.0337,-0.0332,-0.0369,-0.0372,-0.0373,-0.0417,-0.0417,-0.0416,0,0,0,0,0,0,-0.0152,-0.015,-0.0157,-0.017,-0.0174,-0.0222,-0.0204,-0.0212,-0.0226,-0.0277,-0.0287,-0.0253,-0.0325,-0.0333,-0.036,-0.0336,-0.0373,-0.0376,-0.0417,-0.0417,-0.0416,-0.0326,0,0,0,0,0,0,-0.0151,-0.0148,-0.0138,-0.0167,-0.0173,-0.0155,-0.0203,-0.0213,-0.0231,-0.0236,-0.0284,-0.0293,-0.0326,-0.0356,-0.0363,-0.034,-0.0378,-0.0418,-0.0417,-0.0417,-0.033,-0.0323,-0.0317,0,0,0,0,0,-0.0151,-0.012,-0.0136,-0.0136,-0.0153,-0.0154,-0.016,-0.0199,-0.023,-0.0218,-0.0268,-0.0292,-0.0356,-0.0358,-0.0366,-0.0343,-0.0418,-0.0417,-0.0417,-0.0333,-0.0324,-0.0317,0,0,0,0,0,0,-0.0114,-0.0124,-0.0142,-0.0115,-0.0128,-0.0163,-0.0162,-0.0193,-0.0223,-0.0233,-0.0289,-0.0301,-0.0317,-0.0345,-0.0345,-0.0356,-0.0389,-0.039,-0.0323,-0.0315,-0.0309,-0.0275,-0.038,0,0,0,0,0,-0.0101,-0.0086,-0.0103,-0.0084,-0.0084,-0.0125,-0.0135,-0.0156,-0.0188,-0.0203,-0.024,-0.0283,-0.0319,-0.0329,-0.0362,-0.0362,-0.0401,-0.0354,-0.0347,-0.0341,-0.0321,-0.0382,-0.0378,-0.0413,-0.0413,-0.0413,0,0,-0.0086,-0.009,-0.0083,-0.0078,-0.0093,-0.0066,-0.0131,-0.0131,-0.0116,-0.0206,-0.0202,-0.0263,-0.0318,-0.0326,-0.0334,-0.0343,-0.0351,-0.034,-0.0335,-0.0317,-0.038,-0.0377,-0.0374,-0.0413,-0.0413,-0.0413,0,0,-0.0037,-0.0042,-0.001,-0.0006,-0.0016,-0.0031,-0.0025,-0.0051,-0.0069,-0.0078,-0.0148,-0.0196,-0.0231,-0.0272,-0.0297,-0.0273,-0.0322,-0.0282,-0.021,-0.0269,-0.0266,-0.0264,-0.0301,-0.0304,-0.0269,-0.0268,-0.0268,0,-0.0019,0.0029,-0.0002,0.0038,0.0052,-0.0003,0.0046,0.0026,-0.001,-0.0023,-0.0058,-0.0149,-0.0202,-0.0228,-0.0224,-0.0255,-0.0292,-0.0233,-0.0259,-0.0258,-0.0258,-0.0297,-0.03,-0.0264,-0.0264,-0.0265,-0.0265,0,0.0062,0.0098,0.0123,0.016,0.017,0.0203,0.0183,0.0178,0.0141,0.0109,0.0065,-0.0025,-0.0076,-0.0107,-0.0157,-0.0178,-0.0206,-0.0252,-0.0274,-0.0249,-0.0292,-0.0297,-0.0258,-0.0259,-0.026,-0.0262,0,0,0.0117,0.0171,0.0181,0.0221,0.0242,0.0265,0.0289,0.0296,0.0306,0.0242,0.024,0.0148,0.0077,0.0043,-0.0041,-0.0095,-0.0135,-0.0159,-0.0165,-0.0186,-0.025,-0.0272,-0.028,-0.019,-0.019,-0.0191,-0.0278,0,0.0195,0.0298,0.03,0.0397,0.0453,0.0424,0.0454,0.0442,0.0409,0.0392,0.0277,0.0242,0.0142,0.0108,0.0038,-0.0099,-0.0146,-0.0106,-0.028,-0.0284,-0.0299,-0.0286,-0.0282,-0.0359,-0.0284,-0.0284,-0.0285,0,0.028,0.0342,0.0451,0.0523,0.0544,0.0584,0.0619,0.0639,0.0591,0.0562,0.0494,0.0398,0.0304,0.0212,0.0017,0.0046,-0.008,-0.0188,-0.0195,-0.0246,-0.0315,-0.0377,-0.0373,-0.0615,-0.0294,-0.0293,-0.0293,0,0.0342,0.0447,0.0539,0.0569,0.0638,0.0668,0.0695,0.0682,0.0717,0.0665,0.0671,0.0528,0.0465,0.0283,0.0058,0.0036,-0.0157,-0.0219,-0.0351,-0.0354,-0.0397,-0.0403,-0.0638,-0.0339,-0.0339,-0.0338,-0.0338,0,0.043,0.0504,0.0575,0.0628,0.0732,0.0745,0.0833,0.0828,0.0845,0.0896,0.076,0.0758,0.0478,0.0326,0.0111,-0.0127,-0.0117,-0.0326,-0.0377,-0.0365,-0.0366,-0.0618,-0.0771,-0.0342,-0.0341,-0.034,-0.034,0,0.0484,0.0529,0.0641,0.0731,0.0764,0.0835,0.0943,0.1007,0.1002,0.1063,0.1056,0.0931,0.0734,0.0455,0.0158,-0.0042,-0.0432,-0.0363,-0.0317,-0.0361,-0.0712,-0.0858,-0.1159,-0.128,-0.0521,-0.0522,-0.0522,0,0.0524,0.0588,0.0714,0.0786,0.0831,0.0943,0.1025,0.1076,0.116,0.1175,0.1216,0.1054,0.0973,0.0541,0.0144,-0.022,-0.0471,-0.0455,-0.0501,-0.0721,-0.0924,-0.1038,-0.1125,-0.0525,-0.0526,-0.0527,-0.0527,0,0.0602,0.0637,0.0724,0.0874,0.0978,0.1115,0.1236,0.1332,0.1393,0.1449,0.1487,0.1425,0.1017,0.0655,0.0148,-0.0134,-0.065,-0.0479,-0.0735,-0.0962,-0.1077,-0.1218,-0.0468,-0.0533,-0.0533,-0.0532,-0.0532,-0.0532,0.0649,0.072,0.0829,0.0973,0.1096,0.126,0.1392,0.1531,0.1676,0.1794,0.1713,0.1702,0.1157,0.0467,0.0039,-0.0701,-0.072,-0.0906,-0.1067,-0.1162,-0.1284,-0.0528,-0.0638,-0.0638,-0.0638,-0.0638,-0.0638,0,0.0717,0.0797,0.0929,0.1097,0.1244,0.1304,0.1519,0.1669,0.1859,0.1985,0.2038,0.1801,0.1105,0.0396,-0.0594,-0.1147,-0.138,-0.1471,-0.1648,-0.171,-0.1056,-0.106,-0.1232,-0.1232,-0.1232,-0.1232,-0.1231,-0.1231,0.0755,0.0879,0.0948,0.119,0.1316,0.154,0.1674,0.1886,0.2048,0.2244,0.2297,0.229,0.1772,-0.0145,-0.1421,-0.1728,-0.2136,-0.2251,-0.2444,-0.2013,-0.1972,-0.1934,-0.1973,-0.2334,-0.2336,-0.3013,-0.302,-0.3026]}],[{"header":{"parameterUnit":"m.s-1","parameterCategory":2,"la1":30.2991,"la2":30.254,"lo1":-89.0895,"lo2":-89.0444,"dy":0.0017,"dx":0.0017,"nx":28,"ny":28,"refTime":"2025-03-06T09:00:00:Z","depth":"2","parameterNumber":2,"parameterNumberName":"U-component_of_CURRENTS"},"data":[0,0,0,0,0,0,0,0,0,0,0,0,0,0,0,0,0,0,0,0,0,0,0,0,0,0,0,0,0,0,0,0,0,0,0,0,0,0,0,0,0,0,0,0,0,0,0,0,0,0,0,0,0,0,0,0,0,0,0.3244,0.3245,0,0.3333,0.3333,0.3333,0.335,0.335,0.335,0.335,0.3317,0.3316,0.3315,0,0,0,0,0,0,0,0,0,0,0,0,0,0.3128,0.3129,0.3244,0.3246,0.3247,0.3333,0.3333,0.3334,0.335,0.335,0.335,0.335,0.3317,0.3316,0.3315,0,0,0,0,0,0,0,0,0,0,0,0,0,0.3186,0.313,0.3243,0.3272,0.3276,0.3333,0.3333,0.3334,0.335,0.335,0.335,0.335,0.3318,0.3317,0.3315,0.3307,0,0,0.3311,0.3311,0,0,0,0,0,0,0,0,0.3183,0.3189,0.3266,0.327,0.3275,0.3337,0.3281,0.3321,0.335,0.3314,0.335,0.335,0.3318,0.3316,0.3324,0.3305,0.3304,0.3311,0.331,0.331,0.3309,0,0,0,0,0,0,0,0.3179,0.3186,0.3271,0.3268,0.3274,0.3295,0.3301,0.3289,0.3306,0.3317,0.332,0.3343,0.3318,0.3325,0.3323,0.3303,0.3311,0.331,0.3309,0.3308,0.3322,0.3323,0,0,0,0,0,0,0.3182,0.3182,0.3268,0.3274,0.3237,0.3297,0.3304,0.3311,0.3309,0.3312,0.3343,0.3343,0.3327,0.3324,0.3321,0.3355,0.331,0.3308,0.3308,0.3321,0.3322,0.3324,0,0,0,0,0,0,0.3179,0.3188,0.3265,0.3238,0.325,0.3299,0.3306,0.3313,0.3346,0.3332,0.333,0.3373,0.3327,0.3323,0.3341,0.3352,0.3308,0.3307,0.332,0.3321,0.3323,0.3392,0,0,0,0,0,0,0.3175,0.3186,0.3203,0.3237,0.3252,0.3315,0.3307,0.3315,0.3362,0.3364,0.3357,0.3353,0.3327,0.3343,0.334,0.3349,0.3305,0.3318,0.332,0.3322,0.3389,0.3396,0.3403,0,0,0,0,0,0.317,0.3186,0.3203,0.3215,0.3269,0.3317,0.3326,0.3356,0.3364,0.3384,0.3386,0.3354,0.3354,0.3344,0.3339,0.3348,0.3317,0.332,0.3322,0.3385,0.3395,0.3403,0,0,0,0,0,0,0.3142,0.3192,0.321,0.324,0.3287,0.3323,0.3346,0.3374,0.3394,0.3391,0.3376,0.3372,0.339,0.3365,0.3355,0.3359,0.3327,0.3329,0.3377,0.3385,0.3392,0.3384,0.3304,0,0,0,0,0,0.3147,0.3177,0.3225,0.3256,0.3273,0.3316,0.3345,0.3367,0.339,0.3401,0.3402,0.3394,0.3393,0.3389,0.3381,0.3386,0.3394,0.3387,0.3394,0.3401,0.3392,0.3439,0.345,0.3332,0.3332,0.3332,0,0,0.315,0.3182,0.3201,0.3255,0.3282,0.331,0.3331,0.3375,0.3398,0.339,0.3415,0.3424,0.3404,0.3413,0.3417,0.3395,0.3443,0.3404,0.3409,0.3396,0.3443,0.3454,0.3465,0.3334,0.3334,0.3333,0,0,0.3165,0.3189,0.3218,0.3257,0.3316,0.3325,0.3346,0.3394,0.3412,0.3444,0.3448,0.3475,0.3461,0.3463,0.3456,0.3498,0.3486,0.3492,0.3512,0.3559,0.3569,0.3578,0.3627,0.364,0.3487,0.3488,0.3488,0,0.3167,0.3211,0.3237,0.3276,0.3317,0.3333,0.3374,0.3381,0.3436,0.3459,0.3452,0.3494,0.3479,0.3508,0.3516,0.3513,0.3541,0.3482,0.357,0.3578,0.3586,0.3634,0.3647,0.3491,0.3491,0.349,0.349,0,0.321,0.325,0.3266,0.3311,0.3349,0.3387,0.3408,0.3428,0.3443,0.347,0.3521,0.3528,0.3555,0.3555,0.3539,0.3593,0.3598,0.3583,0.355,0.3603,0.3649,0.3662,0.3496,0.3495,0.3494,0.3493,0,0,0.3204,0.328,0.3291,0.333,0.338,0.3411,0.3425,0.3462,0.3495,0.3518,0.3584,0.3581,0.3611,0.3606,0.3616,0.3642,0.3726,0.3633,0.3634,0.3684,0.3845,0.3845,0.3858,0.3737,0.3738,0.374,0.3864,0,0.3234,0.3301,0.3342,0.3405,0.3437,0.3465,0.3488,0.3521,0.3544,0.3596,0.3608,0.3666,0.362,0.3666,0.3681,0.3727,0.3758,0.3694,0.3782,0.3784,0.378,0.3872,0.3574,0.3659,0.3875,0.3877,0.3879,0,0.3271,0.3312,0.3378,0.3463,0.3483,0.3516,0.3572,0.3612,0.3657,0.3686,0.3729,0.3753,0.3802,0.3763,0.3836,0.3804,0.3821,0.384,0.3845,0.3823,0.3807,0.3636,0.3673,0.3899,0.3898,0.3896,0.3895,0,0.3259,0.3344,0.3395,0.3429,0.3506,0.3545,0.3588,0.3642,0.369,0.377,0.3816,0.3866,0.3923,0.3941,0.3957,0.3916,0.4045,0.3997,0.4011,0.4012,0.376,0.3736,0.4048,0.4047,0.4047,0.4047,0.4046,0,0.3279,0.3322,0.3392,0.3431,0.3485,0.3566,0.3643,0.3682,0.3777,0.3823,0.388,0.3929,0.3971,0.4032,0.4019,0.4069,0.4099,0.4036,0.4051,0.378,0.3757,0.395,0.3937,0.4051,0.405,0.405,0.4049,0,0.3248,0.3302,0.3361,0.3454,0.3483,0.3528,0.3655,0.3696,0.3809,0.3876,0.3911,0.4015,0.4099,0.414,0.4209,0.417,0.4209,0.4213,0.3902,0.3878,0.4124,0.4113,0.4245,0.4246,0.4247,0.4248,0.4249,0,0.323,0.326,0.3355,0.337,0.3411,0.3494,0.353,0.3673,0.3716,0.3895,0.3906,0.4063,0.4106,0.4254,0.4241,0.4277,0.4279,0.4011,0.3868,0.4147,0.4149,0.4136,0.4124,0.3564,0.3559,0.3555,0.3552,0,0.3179,0.3216,0.3253,0.3286,0.3327,0.3373,0.3451,0.3493,0.3641,0.3729,0.3829,0.3921,0.4091,0.4018,0.4122,0.4077,0.3983,0.3935,0.4311,0.3578,0.352,0.3517,0.3524,0.3516,0.352,0.3522,0.3524,0.3526,0.3109,0.3106,0.3143,0.3158,0.3195,0.3191,0.3198,0.3288,0.3362,0.3436,0.363,0.3672,0.3776,0.3789,0.371,0.3651,0.3903,0.3699,0.3705,0.3716,0.3632,0.3581,0.3573,0.3577,0.358,0.3583,0.3586,0,0.2968,0.2978,0.2999,0.2995,0.2963,0.3042,0.3074,0.3043,0.3061,0.3203,0.3296,0.3118,0.3165,0.3242,0.3132,0.319,0.3076,0.3036,0.2837,0.2881,0.2918,0.2783,0.2504,0.25,0.2496,0.2492,0,0,0.2884,0.283,0.2836,0.2729,0.2744,0.2653,0.264,0.2635,0.2695,0.2684,0.2713,0.2997,0.3171,0.2772,0.2775,0.2609,0.2695,0.2511,0.3397,0.3207,0.3237,0.3347,0.3199,0,0,0,0,0]},{"header":{"parameterUnit":"m.s-1","parameterCategory":2,"la1":30.2991,"la2":30.254,"lo1":-89.0895,"lo2":-89.0444,"dy":0.0017,"dx":0.0017,"nx":28,"ny":28,"refTime":"2025-03-06T09:00:00:Z","depth":"2","parameterNumber":3,"parameterNumberName":"V-component_of_CURRENTS"},"data":[0,0,0,0,0,0,0,0,0,0,0,0,0,0,0,0,0,0,0,0,0,0,0,0,0,0,0,0,0,0,0,0,0,0,0,0,0,0,0,0,0,0,0,0,0,0,0,0,0,0,0,0,0,0,0,0,0,0,0.0032,0.0031,0,-0.0044,-0.0045,-0.0046,-0.0108,-0.0109,-0.011,-0.0111,-0.0219,-0.0222,-0.0224,0,0,0,0,0,0,0,0,0,0,0,0,0,0.0024,0.0026,0.0032,0.0031,0.003,-0.0044,-0.0045,-0.0046,-0.0108,-0.0109,-0.011,-0.0111,-0.0219,-0.0221,-0.0224,0,0,0,0,0,0,0,0,0,0,0,0,0,-0.0003,0.0026,0.0032,-0.0011,-0.0016,-0.0044,-0.0045,-0.0046,-0.0108,-0.0109,-0.011,-0.0111,-0.0218,-0.0221,-0.0224,-0.0221,0,0,-0.0234,-0.0236,0,0,0,0,0,0,0,0,-0.0001,-0.0002,-0.0004,-0.0008,-0.0014,-0.0069,-0.0088,-0.0107,-0.0108,-0.0072,-0.0111,-0.0112,-0.0172,-0.0179,-0.0189,-0.0226,-0.0231,-0.0235,-0.0236,-0.0238,-0.0239,0,0,0,0,0,0,0,0.0001,0.0,0.0003,-0.0005,-0.0011,-0.0061,-0.0064,-0.0092,-0.0114,-0.0075,-0.008,-0.009,-0.0175,-0.0185,-0.0192,-0.0233,-0.0234,-0.0237,-0.0239,-0.0241,-0.0305,-0.0305,0,0,0,0,0,0,0.0015,0.0003,0.0005,0.0,-0.0011,-0.0059,-0.0064,-0.0049,-0.0113,-0.0124,-0.0089,-0.0093,-0.0179,-0.0188,-0.0196,-0.0205,-0.0238,-0.0241,-0.0243,-0.0305,-0.0305,-0.0305,0,0,0,0,0,0,0.0016,0.0017,0.0008,-0.0003,-0.0008,-0.0057,-0.0041,-0.005,-0.0071,-0.0124,-0.0135,-0.0102,-0.018,-0.0191,-0.0228,-0.021,-0.0242,-0.0245,-0.0306,-0.0305,-0.0305,-0.0218,0,0,0,0,0,0,0.0016,0.0019,0.0023,-0.0001,-0.0007,0.0005,-0.004,-0.0051,-0.0075,-0.0081,-0.0139,-0.0149,-0.0182,-0.0223,-0.0231,-0.0215,-0.0248,-0.0306,-0.0305,-0.0305,-0.0221,-0.0214,-0.0209,0,0,0,0,0,0.0017,0.0044,0.0025,0.0023,0.0006,0.0006,-0.0,-0.0041,-0.0075,-0.0068,-0.0121,-0.0148,-0.0226,-0.0225,-0.0235,-0.0219,-0.0306,-0.0305,-0.0305,-0.0224,-0.0216,-0.0209,0,0,0,0,0,0,0.0048,0.0039,0.0017,0.0041,0.0025,-0.0005,-0.0005,-0.004,-0.0076,-0.0087,-0.0147,-0.0161,-0.0187,-0.0217,-0.0216,-0.0238,-0.0269,-0.027,-0.0204,-0.0197,-0.0191,-0.0161,-0.0251,0,0,0,0,0,0.0056,0.0068,0.0052,0.0065,0.0067,0.0026,0.0014,-0.0009,-0.0042,-0.0059,-0.0102,-0.015,-0.0189,-0.0205,-0.0241,-0.025,-0.029,-0.0247,-0.0241,-0.0235,-0.0218,-0.0279,-0.0276,-0.0303,-0.0303,-0.0303,0,0,0.0065,0.0064,0.0066,0.007,0.0056,0.008,0.0018,0.0017,0.0024,-0.0065,-0.0072,-0.0132,-0.019,-0.0204,-0.0217,-0.0227,-0.0248,-0.0235,-0.0229,-0.0215,-0.0278,-0.0275,-0.0273,-0.0302,-0.0302,-0.0303,0,0,0.0108,0.0101,0.013,0.0132,0.0122,0.0109,0.0111,0.0086,0.0063,0.0047,-0.0023,-0.0074,-0.0117,-0.0159,-0.0186,-0.0168,-0.022,-0.0179,-0.0116,-0.0174,-0.0173,-0.0171,-0.0211,-0.0215,-0.0169,-0.0169,-0.0169,0,0.0118,0.0162,0.0135,0.0172,0.0184,0.0131,0.0174,0.0152,0.011,0.0095,0.006,-0.0037,-0.0092,-0.0124,-0.012,-0.0152,-0.019,-0.0136,-0.0165,-0.0165,-0.0165,-0.0207,-0.0212,-0.0165,-0.0165,-0.0166,-0.0166,0,0.0191,0.0221,0.0246,0.0279,0.0286,0.0317,0.0296,0.0285,0.0245,0.0212,0.0162,0.0074,0.0019,-0.0012,-0.006,-0.0087,-0.0115,-0.0156,-0.0179,-0.0157,-0.0203,-0.0209,-0.0159,-0.016,-0.0161,-0.0163,0,0,0.0235,0.0288,0.0297,0.0333,0.035,0.0372,0.0387,0.0388,0.0391,0.0325,0.0317,0.0224,0.0158,0.0121,0.004,-0.0014,-0.0058,-0.0075,-0.008,-0.0104,-0.0174,-0.0199,-0.0209,-0.0107,-0.0107,-0.0108,-0.0203,0,0.0303,0.0399,0.0402,0.0488,0.0542,0.0512,0.0534,0.0517,0.048,0.0458,0.0347,0.0309,0.0215,0.0181,0.0111,-0.0021,-0.0071,-0.0027,-0.02,-0.0204,-0.0221,-0.0216,-0.0193,-0.0277,-0.0209,-0.021,-0.0211,0,0.0381,0.0439,0.0538,0.0604,0.0624,0.0658,0.0684,0.0695,0.0643,0.0612,0.0543,0.0451,0.0355,0.0272,0.0078,0.011,-0.0013,-0.0117,-0.0124,-0.0179,-0.0241,-0.0291,-0.0291,-0.0222,-0.0221,-0.0221,-0.022,0,0.0438,0.0535,0.0619,0.0646,0.0707,0.0732,0.0755,0.0735,0.0763,0.0705,0.0708,0.0567,0.0504,0.0328,0.011,0.0093,-0.0103,-0.0156,-0.0289,-0.0292,-0.0321,-0.0325,-0.0277,-0.0277,-0.0277,-0.0277,-0.0277,0,0.052,0.0588,0.0653,0.0701,0.0797,0.0806,0.0885,0.0873,0.0882,0.0926,0.079,0.0783,0.0513,0.0363,0.0157,-0.0079,-0.0068,-0.027,-0.0319,-0.029,-0.029,-0.0284,-0.0283,-0.028,-0.028,-0.0279,-0.0278,0,0.0573,0.0613,0.0716,0.0796,0.0827,0.0892,0.0992,0.1048,0.1035,0.1086,0.1077,0.0944,0.0746,0.0476,0.0186,-0.0005,-0.0236,-0.0319,-0.0257,-0.0297,-0.0396,-0.039,-0.0476,-0.0478,-0.0479,-0.048,-0.0481,0,0.0611,0.067,0.0785,0.0853,0.0894,0.0999,0.1075,0.1117,0.1191,0.119,0.1223,0.1055,0.0964,0.0537,0.0156,-0.0199,-0.0241,-0.0403,-0.0438,-0.0377,-0.0417,-0.0409,-0.0401,-0.0443,-0.0444,-0.0444,-0.0445,0,0.0687,0.0716,0.0797,0.0937,0.1035,0.1165,0.1276,0.1363,0.1411,0.1453,0.1471,0.1399,0.0992,0.0629,0.0136,-0.0115,-0.035,-0.0424,-0.0388,-0.039,-0.0353,-0.0389,-0.0382,-0.0449,-0.0449,-0.0448,-0.0448,-0.0448,0.0731,0.0797,0.0896,0.103,0.1148,0.13,0.1424,0.1544,0.167,0.1742,0.1663,0.1572,0.1153,0.0525,0.0083,-0.039,-0.0369,-0.0524,-0.052,-0.0516,-0.0489,-0.0456,-0.0566,-0.0566,-0.0566,-0.0566,-0.0566,0,0.0794,0.0866,0.099,0.1145,0.1284,0.1342,0.1541,0.1663,0.1821,0.1874,0.1892,0.1504,0.1084,0.0601,-0.0091,-0.0495,-0.0538,-0.0629,-0.0581,-0.0574,-0.0568,-0.0543,-0.0634,-0.0636,-0.0637,-0.0638,0,0,0.0829,0.0942,0.1004,0.1228,0.1347,0.1551,0.1676,0.1836,0.193,0.1999,0.1955,0.1836,0.1247,0.0747,0.0177,-0.0221,-0.0307,-0.0315,-0.0219,-0.0088,-0.0077,-0.047,-0.0418,0,0,0,0,0]}],[{"header":{"parameterUnit":"m.s-1","parameterCategory":2,"la1":30.2991,"la2":30.254,"lo1":-89.0895,"lo2":-89.0444,"dy":0.0017,"dx":0.0017,"nx":28,"ny":28,"refTime":"2025-03-06T09:00:00:Z","depth":"4","parameterNumber":2,"parameterNumberName":"U-component_of_CURRENTS"},"data":[0,0,0,0,0,0,0,0,0,0,0,0,0,0,0,0,0,0,0,0,0,0,0,0,0,0,0,0,0,0,0,0,0,0,0,0,0,0,0,0,0,0,0,0,0,0,0,0,0,0,0,0,0,0,0,0,0,0,0.168,0.1682,0,0.1834,0.1836,0.1837,0.1921,0.1922,0.1922,0.1923,0.2141,0.2146,0.2151,0,0,0,0,0,0,0,0,0,0,0,0,0,0.147,0.1473,0.1679,0.1682,0.1684,0.1834,0.1836,0.1838,0.1921,0.1922,0.1923,0.1923,0.2139,0.2145,0.2152,0,0,0,0,0,0,0,0,0,0,0,0,0,0.1583,0.1474,0.1679,0.1747,0.1755,0.1834,0.1836,0.1838,0.1921,0.1922,0.1923,0.1924,0.2137,0.2145,0.2153,0.2184,0,0,0.2177,0.218,0,0,0,0,0,0,0,0,0.1576,0.159,0.1734,0.1742,0.1751,0.1863,0.1842,0.1958,0.1921,0.1854,0.1923,0.1924,0.2056,0.207,0.2091,0.2195,0.2204,0.2177,0.2182,0.2186,0.2188,0,0,0,0,0,0,0,0.1568,0.1584,0.1737,0.1737,0.1747,0.1775,0.1791,0.1864,0.1946,0.186,0.1867,0.189,0.206,0.2083,0.2097,0.2207,0.2177,0.2184,0.2189,0.2192,0.2485,0.2487,0,0,0,0,0,0,0.1556,0.1577,0.1732,0.1742,0.1669,0.1778,0.1796,0.1823,0.1944,0.1964,0.1889,0.1894,0.2069,0.2088,0.2105,0.2286,0.2186,0.2193,0.2198,0.2482,0.2485,0.2488,0,0,0,0,0,0,0.1551,0.1569,0.1726,0.1665,0.1688,0.1781,0.181,0.1826,0.1889,0.1967,0.1988,0.1941,0.2071,0.2094,0.2212,0.229,0.2197,0.2204,0.2478,0.2483,0.2487,0.256,0,0,0,0,0,0,0.1544,0.1566,0.1595,0.1665,0.1691,0.1788,0.181,0.1828,0.1901,0.1909,0.2018,0.2036,0.2073,0.2201,0.222,0.2299,0.221,0.2474,0.248,0.2485,0.2554,0.2567,0.2578,0,0,0,0,0,0.1536,0.1566,0.1596,0.1616,0.1724,0.179,0.1806,0.1871,0.1903,0.1931,0.2019,0.2035,0.2251,0.2209,0.2232,0.2315,0.2471,0.2478,0.2485,0.2549,0.2564,0.2577,0,0,0,0,0,0,0.1497,0.158,0.1613,0.1671,0.1734,0.1806,0.1849,0.1892,0.1981,0.2008,0.2074,0.2099,0.2231,0.226,0.2213,0.2414,0.2364,0.2376,0.2405,0.242,0.2432,0.2412,0.2217,0,0,0,0,0,0.1501,0.1547,0.1623,0.1675,0.1708,0.1786,0.1829,0.1876,0.1956,0.1997,0.2084,0.2179,0.227,0.2333,0.2408,0.2521,0.2519,0.2588,0.26,0.261,0.261,0.2655,0.267,0.2511,0.2511,0.2511,0,0,0.1499,0.1556,0.1582,0.167,0.1729,0.1802,0.1814,0.1891,0.1978,0.2009,0.2166,0.2224,0.2307,0.2433,0.2496,0.2475,0.266,0.2619,0.2626,0.2621,0.2663,0.2678,0.2692,0.2515,0.2515,0.2514,0,0,0.1515,0.1573,0.1615,0.1675,0.1771,0.183,0.186,0.1961,0.2032,0.2166,0.2219,0.2314,0.2469,0.2535,0.2588,0.2709,0.2714,0.2751,0.2811,0.2855,0.2868,0.2879,0.2908,0.2921,0.2765,0.2766,0.2766,0,0.1525,0.1586,0.1637,0.1702,0.1769,0.185,0.1922,0.2009,0.2146,0.2214,0.223,0.245,0.2514,0.266,0.2708,0.2737,0.2756,0.2749,0.2868,0.2878,0.2888,0.2916,0.2929,0.277,0.2769,0.2769,0.2769,0,0.1563,0.1633,0.1668,0.1786,0.1858,0.1933,0.2053,0.2156,0.2255,0.2335,0.2498,0.2578,0.2698,0.2747,0.2775,0.2898,0.2887,0.2867,0.2822,0.2908,0.2933,0.2945,0.2776,0.2775,0.2773,0.2772,0,0,0.1546,0.1672,0.1693,0.1754,0.1912,0.1971,0.2135,0.2282,0.2393,0.252,0.2649,0.2798,0.2822,0.2881,0.2926,0.2975,0.3067,0.2964,0.2964,0.2977,0.3168,0.2985,0.2981,0.3073,0.3075,0.3077,0.316,0,0.1577,0.1692,0.1758,0.1892,0.1965,0.2091,0.2226,0.2372,0.2512,0.2658,0.2749,0.2887,0.2884,0.2952,0.3,0.3056,0.3103,0.3046,0.3097,0.3098,0.2911,0.2989,0.3085,0.3169,0.3172,0.3174,0.3175,0,0.1602,0.1678,0.1805,0.1947,0.1991,0.2091,0.2313,0.2439,0.265,0.2759,0.2892,0.2967,0.3094,0.3059,0.3177,0.3147,0.3166,0.3185,0.3188,0.2994,0.2937,0.3065,0.3197,0.3195,0.3194,0.3192,0.3191,0,0.156,0.1712,0.1816,0.1873,0.2053,0.2145,0.2253,0.2471,0.2599,0.2827,0.2937,0.3072,0.3165,0.3208,0.3263,0.3238,0.3358,0.3319,0.317,0.3158,0.3263,0.325,0.3383,0.3383,0.3383,0.3383,0.3383,0,0.1559,0.1642,0.1807,0.1857,0.1989,0.2119,0.2284,0.2434,0.2647,0.2785,0.2967,0.3081,0.3209,0.3295,0.3304,0.3273,0.3392,0.3186,0.3168,0.3295,0.3285,0.3272,0.3258,0.3386,0.3385,0.3385,0.3384,0,0.15,0.1611,0.1725,0.1905,0.1972,0.2066,0.2281,0.2394,0.2617,0.2808,0.2887,0.3124,0.3228,0.3322,0.3408,0.3315,0.3312,0.3272,0.3419,0.3408,0.3071,0.3061,0.3098,0.3092,0.3087,0.3083,0.308,0,0.148,0.1541,0.1735,0.1804,0.189,0.2045,0.215,0.2373,0.2494,0.2801,0.2868,0.307,0.3194,0.3167,0.3271,0.3279,0.3242,0.3218,0.3118,0.3064,0.3044,0.3041,0.3037,0.3072,0.3071,0.3069,0.3068,0,0.1438,0.1526,0.1612,0.1748,0.1864,0.1982,0.2138,0.2208,0.2459,0.2672,0.2794,0.2871,0.2987,0.3042,0.3086,0.308,0.3216,0.3166,0.3175,0.3081,0.3033,0.3017,0.3019,0.3051,0.3054,0.3055,0.3056,0,0.1406,0.1447,0.1568,0.1681,0.1816,0.1889,0.1976,0.2099,0.2234,0.2547,0.2567,0.2775,0.2948,0.2942,0.2974,0.2966,0.291,0.2802,0.2828,0.2848,0.2728,0.2628,0.2512,0,0,0,0,0,0.1362,0.1393,0.1488,0.1589,0.1717,0.1793,0.1969,0.206,0.2278,0.2299,0.2431,0.2523,0.2602,0.2706,0.2645,0.2867,0.2923,0.2785,0.281,0.2957,0.2977,0.2858,0,0,0,0,0,0,0.1327,0.1402,0.1446,0.1512,0.1555,0.1674,0.1772,0.1911,0.1931,0.2152,0.2202,0.2369,0.2475,0.2604,0.2595,0.2625,0.259,0.2907,0.29,0.2946,0.2964,0.298,0.2865,0,0,0,0,0]},{"header":{"parameterUnit":"m.s-1","parameterCategory":2,"la1":30.2991,"la2":30.254,"lo1":-89.0895,"lo2":-89.0444,"dy":0.0017,"dx":0.0017,"nx":28,"ny":28,"refTime":"2025-03-06T09:00:00:Z","depth":"4","parameterNumber":3,"parameterNumberName":"V-component_of_CURRENTS"},"data":[0,0,0,0,0,0,0,0,0,0,0,0,0,0,0,0,0,0,0,0,0,0,0,0,0,0,0,0,0,0,0,0,0,0,0,0,0,0,0,0,0,0,0,0,0,0,0,0,0,0,0,0,0,0,0,0,0,0,0.0313,0.0313,0,0.0257,0.0256,0.0256,0.0211,0.0211,0.021,0.021,0.0073,0.0069,0.0066,0,0,0,0,0,0,0,0,0,0,0,0,0,0.0325,0.0325,0.0313,0.0313,0.0312,0.0257,0.0256,0.0256,0.0211,0.0211,0.021,0.021,0.0074,0.007,0.0066,0,0,0,0,0,0,0,0,0,0,0,0,0,0.0299,0.0325,0.0314,0.0284,0.028,0.0257,0.0256,0.0255,0.0211,0.0211,0.021,0.0209,0.0075,0.007,0.0065,0.0047,0,0,0.005,0.0048,0,0,0,0,0,0,0,0,0.0301,0.0299,0.0289,0.0286,0.0282,0.0241,0.021,0.0182,0.0211,0.0237,0.021,0.0209,0.0122,0.0113,0.0104,0.0041,0.0035,0.005,0.0047,0.0045,0.0043,0,0,0,0,0,0,0,0.0303,0.0301,0.0291,0.0288,0.0284,0.0253,0.0249,0.0205,0.0182,0.0235,0.0231,0.0226,0.0119,0.0109,0.0101,0.0033,0.005,0.0046,0.0043,0.0041,-0.008,-0.008,0,0,0,0,0,0,0.0314,0.0303,0.0292,0.0289,0.0291,0.0254,0.0249,0.0254,0.0184,0.0173,0.0227,0.0224,0.0118,0.0107,0.0096,0.0059,0.0045,0.004,0.0037,-0.008,-0.008,-0.008,0,0,0,0,0,0,0.0315,0.0314,0.0295,0.0294,0.0289,0.0255,0.026,0.0254,0.0244,0.0179,0.0166,0.0224,0.0117,0.0102,0.0059,0.0054,0.0038,0.0033,-0.0079,-0.008,-0.008,-0.0007,0,0,0,0,0,0,0.0316,0.0315,0.0322,0.0295,0.029,0.0291,0.0261,0.0253,0.0242,0.0238,0.0172,0.0159,0.0116,0.0067,0.0054,0.0047,0.003,-0.0079,-0.008,-0.008,-0.0009,-0.0005,-0.0002,0,0,0,0,0,0.0317,0.0333,0.0323,0.0321,0.0301,0.0292,0.0286,0.0258,0.0242,0.0246,0.0198,0.0161,0.0054,0.0063,0.0048,0.0039,-0.0079,-0.0079,-0.008,-0.0011,-0.0006,-0.0002,0,0,0,0,0,0,0.0339,0.0329,0.0317,0.0329,0.0315,0.0284,0.0284,0.0265,0.0231,0.0226,0.0161,0.0145,0.0102,0.0062,0.0073,0.0002,-0.002,-0.0024,0.0037,0.0041,0.0045,0.0067,0.0025,0,0,0,0,0,0.0349,0.0358,0.034,0.0347,0.0344,0.0315,0.0307,0.0292,0.026,0.0246,0.0196,0.0141,0.0089,0.0061,0.0012,-0.0023,-0.0061,-0.0041,-0.0036,-0.0033,-0.0026,-0.0082,-0.0082,-0.0082,-0.0082,-0.0082,0,0,0.0357,0.0353,0.0356,0.0352,0.0338,0.034,0.0309,0.0307,0.03,0.0234,0.0205,0.0154,0.0083,0.0043,0.0019,0.0009,-0.0053,-0.0033,-0.003,-0.0025,-0.0083,-0.0083,-0.0083,-0.0082,-0.0082,-0.0082,0,0,0.0377,0.0379,0.039,0.0387,0.0377,0.0363,0.0367,0.0342,0.0323,0.0295,0.0239,0.0191,0.0117,0.0066,0.0029,0.0025,-0.003,0.0005,0.004,-0.0014,-0.0014,-0.0014,-0.0059,-0.0064,0.0006,0.0006,0.0006,0,0.0382,0.0401,0.039,0.04,0.0404,0.0378,0.0392,0.037,0.0331,0.0317,0.0295,0.0186,0.0127,0.007,0.0066,0.0035,-0.0001,0.0032,-0.0007,-0.0008,-0.001,-0.0056,-0.0062,0.001,0.0009,0.0009,0.0009,0,0.0408,0.0424,0.0433,0.0439,0.0441,0.0454,0.0432,0.0422,0.0396,0.037,0.0316,0.0238,0.0177,0.0143,0.0101,0.0055,0.0034,0.0008,-0.0012,-0.0005,-0.0054,-0.0062,0.0015,0.0013,0.0012,0.0012,0,0,0.0417,0.0445,0.045,0.0467,0.047,0.0478,0.0471,0.046,0.0458,0.0404,0.0386,0.029,0.0256,0.0212,0.0148,0.0095,0.0048,0.0053,0.0048,0.0021,-0.0065,-0.0076,-0.0087,0.0017,0.0016,0.0015,-0.0092,0,0.0438,0.0479,0.0484,0.052,0.0542,0.0529,0.0528,0.0515,0.0489,0.0465,0.0383,0.0342,0.0279,0.0252,0.019,0.0082,0.0029,0.008,-0.0078,-0.0083,-0.0084,-0.0096,0.0011,-0.0098,-0.01,-0.0102,-0.0103,0,0.0461,0.0491,0.0536,0.0574,0.0582,0.0599,0.0611,0.0606,0.0566,0.0548,0.0497,0.0434,0.0346,0.0296,0.0125,0.0161,0.006,-0.0025,-0.0032,-0.0072,-0.0109,-0.0112,-0.0118,-0.0117,-0.0116,-0.0115,-0.0114,0,0.0484,0.0528,0.0573,0.0586,0.0618,0.0636,0.0649,0.0634,0.0647,0.0605,0.0609,0.0494,0.0442,0.03,0.0127,0.0125,-0.0061,-0.0087,-0.0193,-0.0195,-0.0183,-0.0182,-0.0201,-0.0201,-0.0201,-0.0201,-0.02,0,0.0508,0.0545,0.0593,0.062,0.0678,0.068,0.0734,0.0723,0.0727,0.0751,0.0659,0.064,0.0441,0.0311,0.015,-0.0044,-0.0045,-0.0188,-0.0225,-0.0151,-0.0144,-0.0189,-0.0186,-0.0205,-0.0204,-0.0203,-0.0202,0,0.0525,0.0552,0.0612,0.0668,0.0694,0.0735,0.0813,0.0846,0.0838,0.0865,0.0858,0.0745,0.0572,0.0367,0.0126,-0.0007,-0.0196,-0.0264,-0.016,-0.019,-0.0299,-0.0291,-0.039,-0.0392,-0.0393,-0.0394,-0.0395,0,0.0539,0.0572,0.066,0.071,0.0743,0.0817,0.0873,0.0901,0.0944,0.0926,0.0937,0.0792,0.069,0.0356,0.0125,-0.0181,-0.0228,-0.0324,-0.0323,-0.0293,-0.032,-0.031,-0.0301,-0.0396,-0.0397,-0.0397,-0.0397,0,0.0568,0.06,0.0653,0.0761,0.0837,0.0926,0.1005,0.1046,0.1069,0.1068,0.1009,0.0832,0.0635,0.0364,0.0123,-0.0098,-0.0262,-0.0337,-0.0336,-0.0336,-0.0301,-0.0325,-0.0315,-0.0401,-0.0401,-0.04,-0.04,0,0.0593,0.0634,0.0712,0.0803,0.0904,0.0996,0.1041,0.1091,0.1126,0.1103,0.1078,0.0866,0.0741,0.0406,0.0185,-0.0036,-0.0098,-0.017,-0.0179,-0.0177,-0.0091,-0.0015,-0.0059,0,0,0,0,0,0.0612,0.066,0.0751,0.085,0.0955,0.1019,0.1112,0.1147,0.1171,0.1144,0.1117,0.0937,0.0602,0.0454,0.0233,0.0142,-0.0149,-0.0128,-0.024,-0.0423,-0.0418,-0.0356,0,0,0,0,0,0,0.0623,0.0702,0.0745,0.0874,0.0955,0.1074,0.1137,0.1159,0.1146,0.1134,0.0964,0.0879,0.0556,0.0735,0.023,0.0161,0.0057,-0.0282,-0.0287,-0.0425,-0.0421,-0.0418,-0.0352,0,0,0,0,0]}]]